Regional Weather Roundup
Issued by NWS

Home | Current Version | Previous Version | Text Only | Print | Product List | Glossary On
Versions: 1 2 3 4 5 6 7 8 9 10 11 12 13 14 15 16 17 18 19 20 21 22 23 24 25 26 27
000
ASUS44 KBMX 260710
RWRAL

ALABAMA REGIONAL WEATHER ROUNDUP
NATIONAL WEATHER SERVICE BIRMINGHAM AL
200 AM CDT WED APR 26 2017

NOTE: "FAIR" INDICATES FEW OR NO CLOUDS BELOW 12,000 FEET
WITH NO SIGNIFICANT WEATHER AND/OR OBSTRUCTIONS TO VISIBILITY.

THE REMARK "TC" DENOTES TEMPERATURE IN DEGREES CELSIUS.

ALZ001>011-014-016>018-020-260800-
NORTH ALABAMA

CITY           SKY/WX    TMP DP  RH WIND       PRES   REMARKS
MUSCLE SHOALS  CLEAR     59  54  83 SE3       29.69F
HUNTSVILLE     CLEAR     59  57  93 SE7       29.71F
DECATUR        CLEAR     59  56  89 SE9       29.71F
HALEYVILLE     FAIR      63  56  78 S6        29.73S
GADSDEN        CLEAR     55  54  96 CALM      29.75F
$$

ALZ012-013-022-023-030>036-040>044-260800-
WEST CENTRAL ALABAMA

CITY           SKY/WX    TMP DP  RH WIND       PRES   REMARKS
TUSCALOOSA     CLEAR     61  58  90 S6        29.73F
$$

ALZ015-024>027-033>036-040>044-260800-
CENTRAL ALABAMA

CITY           SKY/WX    TMP DP  RH WIND       PRES   REMARKS
BIRMINGHAM     CLEAR     67  56  67 S8        29.75F
MONTGOMERY     CLEAR     63  54  72 S5        29.76F
SHELBY CO ARPT CLEAR     64  58  80 S7        29.75F
MAXWELL AFB    CLEAR     59  57  91 CALM      29.76F
GREENVILLE     FAIR      60  55  83 S5        29.77F
$$

ALZ019-021-028-029-037-038-045>048-260800-
EAST CENTRAL ALABAMA

CITY           SKY/WX    TMP DP  RH WIND       PRES   REMARKS
ANNISTON       CLEAR     58  57  97 CALM      29.76F
ALEXANDER CITY CLEAR     54  52  93 CALM      29.77F
AUBURN         CLEAR     60  54  80 S8        29.79F
$$

ALZ051>064-260800-
SOUTHWEST ALABAMA

CITY           SKY/WX    TMP DP  RH WIND       PRES   REMARKS
MOBILE         CLEAR     60  56  86 S5        29.76F
BROOKLEY FIELD CLEAR     67  59  75 S3        29.78F
EVERGREEN      CLEAR     57  54  89 CALM      29.78F
$$

ALZ049-050-065>069-260800-
SOUTHEAST ALABAMA

CITY           SKY/WX    TMP DP  RH WIND       PRES   REMARKS
DOTHAN         CLEAR     63  60  90 SW6       29.83F
OZARK          CLEAR     60  57  91 S3        29.79F
TROY           CLEAR     56  55  97 CALM      29.79F
EUFAULA        FAIR      57  55  93 CALM      29.78F
$$




USA.gov is the U.S. government's official web portal to all federal, state and local government web resources and services.